User: anonymous   Login
Location: Unspecified
(0.0000°N, 0.0000°E)
Time: 23:49:38
(UTC+00:00)
Language:

STARLINK-34140 - Orbit

View from above orbital plane
View from above orbital plane
View from above satellite
View from above satellite

Ground track
Ground track

The orbit is defined by the following mean orbital elements,

1 64085U          26145.01991925 +.00000000 +00000-0 +72081-3 0 00001
2 64085  43.0047 130.5199 0002751 290.3731  69.6825 15.27603757    00
Epoch (UTC): 25 May 2026 00:28:41
Eccentricity: 0.0002751
inclination: 43.0047°
perigee height: 481 km
apogee height: 485 km
right ascension of ascending node: 130.5199°
argument of perigee: 290.3731°
revolutions per day: 15.27603757
mean anomaly at epoch: 69.6825°

The dashed part of the orbit path shows where the satellite is in the earth's shadow,  

DLR